FW6558 Weather Reports


Display with metric or nautical units.
time (UTC)temp
F
wind
direction
speed
MPH
gust
MPH
rain 1hr
in
rain 24hr
in
rain mn
in
humidity
%
barometer
mb
20211020141304 63 150 0.0 1.0 0.00 0.00 0.00 78 1023.6
20211020140804 62 150 0.0 1.0 0.00 0.00 0.00 81 1023.6
20211020140304 61 150 1.0 1.0 0.00 0.00 0.00 83 1023.6
20211020135804 60 150 0.0 1.0 0.00 0.00 0.00 87 1023.6
20211020135306 58 150 0.0 1.0 0.00 0.00 0.00 90 1023.6
20211020134804 58 150 0.0 1.0 0.00 0.00 0.00 87 1023.7
20211020134304 58 182 0.0 0.0 0.00 0.00 0.00 90 1023.7
20211020133804 56 182 0.0 0.0 0.00 0.00 0.00 95 1023.6
20211020133304 55 182 0.0 0.0 0.00 0.00 0.00 95 1023.5
20211020132804 55 182 0.0 0.0 0.00 0.00 0.00 95 1023.4
20211020132306 55 182 0.0 0.0 0.00 0.00 0.00 97 1023.6
20211020131804 55 182 0.0 0.0 0.00 0.00 0.00 97 1023.4
20211020131304 54 182 0.0 0.0 0.00 0.00 0.00 96 1023.3
20211020130804 54 182 0.0 0.0 0.00 0.00 0.00 97 1023.4
20211020130304 53 182 0.0 0.0 0.00 0.00 0.00 99 1023.4
20211020125804 53 182 0.0 0.0 0.00 0.00 0.00 98 1023.2
20211020125306 53 182 0.0 0.0 0.00 0.00 0.00 98 1023.4
20211020124804 53 182 0.0 0.0 0.00 0.00 0.00 98 1023.2
20211020124304 52 182 0.0 0.0 0.00 0.00 0.00 99 1023.2
20211020123804 52 182 0.0 0.0 0.00 0.00 0.00 99 1023.0
20211020123305 52 182 0.0 0.0 0.00 0.00 0.00 99 1023.0
20211020122805 52 182 0.0 0.0 0.00 0.00 0.00 99 1023.0
20211020122306 52 182 0.0 0.0 0.00 0.00 0.00 99 1022.9
20211020121805 52 182 0.0 0.0 0.00 0.00 0.00 99 1023.1
20211020121305 52 182 0.0 0.0 0.00 0.00 0.00 99 1022.9
20211020120805 52 182 0.0 0.0 0.00 0.00 0.00 99 1022.9
20211020120305 52 182 0.0 0.0 0.00 0.00 0.00 99 1023.1
20211020115804 51 182 0.0 0.0 0.00 0.00 0.00 99 1022.9
20211020115306 51 182 0.0 0.0 0.00 0.00 0.00 99 1022.7
20211020114805 51 182 0.0 0.0 0.00 0.00 0.00 99 1023.0
20211020114304 51 182 0.0 0.0 0.00 0.00 0.00 99 1023.0
20211020113804 51 182 0.0 0.0 0.00 0.00 0.00 99 1022.9
20211020113304 51 182 0.0 0.0 0.00 0.00 0.00 99 1023.0
20211020112804 51 182 0.0 0.0 0.00 0.00 0.00 99 1022.9
20211020112305 51 182 0.0 0.0 0.00 0.00 0.00 99 1022.9
20211020111804 51 182 0.0 0.0 0.00 0.00 0.00 99 1022.8
20211020111304 51 182 0.0 0.0 0.00 0.00 0.00 99 1022.7
20211020110804 50 182 0.0 0.0 0.00 0.00 0.00 99 1022.8
20211020110304 50 182 0.0 0.0 0.00 0.00 0.00 99 1022.8
20211020105804 50 182 0.0 0.0 0.00 0.00 0.00 99 1022.8
20211020105306 50 182 0.0 0.0 0.00 0.00 0.00 99 1022.7
20211020104804 50 182 0.0 0.0 0.00 0.00 0.00 99 1022.9
20211020104304 50 182 0.0 0.0 0.00 0.00 0.00 99 1022.6
20211020103804 50 182 0.0 0.0 0.00 0.00 0.00 99 1022.7
20211020103304 50 182 0.0 0.0 0.00 0.00 0.00 99 1022.7
20211020102804 50 182 0.0 0.0 0.00 0.00 0.00 99 1022.4
20211020102306 50 182 0.0 0.0 0.00 0.00 0.00 99 1022.5
20211020101804 50 182 0.0 0.0 0.00 0.00 0.00 99 1022.5
20211020101304 50 182 0.0 0.0 0.00 0.00 0.00 99 1022.3
20211020100804 50 182 0.0 0.0 0.00 0.00 0.00 99 1022.3
20211020100304 50 182 0.0 0.0 0.00 0.00 0.00 98 1022.3
20211020095803 49 182 0.0 0.0 0.00 0.00 0.00 98 1022.4
20211020095305 49 182 0.0 0.0 0.00 0.00 0.00 98 1022.4
20211020094803 49 182 0.0 0.0 0.00 0.00 0.00 98 1022.3
20211020094304 50 182 0.0 0.0 0.00 0.00 0.00 97 1022.3
20211020093804 49 182 0.0 0.0 0.00 0.00 0.00 98 1022.2
20211020093304 49 182 0.0 0.0 0.00 0.00 0.00 97 1022.4
20211020092804 49 182 0.0 0.0 0.00 0.00 0.00 97 1022.3
20211020092307 49 182 0.0 0.0 0.00 0.00 0.00 97 1022.2
20211020091804 49 182 0.0 0.0 0.00 0.00 0.00 97 1022.3
20211020091304 49 182 0.0 0.0 0.00 0.00 0.00 97 1021.9
20211020090804 49 182 0.0 0.0 0.00 0.00 0.00 97 1022.2
20211020090304 49 182 0.0 0.0 0.00 0.00 0.00 97 1022.2
20211020085804 49 182 0.0 0.0 0.00 0.00 0.00 97 1021.9
20211020085307 49 182 0.0 0.0 0.00 0.00 0.00 97 1021.9
20211020084804 49 182 0.0 0.0 0.00 0.00 0.00 97 1021.9
20211020084304 48 182 0.0 0.0 0.00 0.00 0.00 97 1022.0
20211020083804 48 182 0.0 0.0 0.00 0.00 0.00 97 1021.8
20211020083304 48 182 0.0 0.0 0.00 0.00 0.00 97 1021.9
20211020082804 48 182 0.0 0.0 0.00 0.00 0.00 97 1021.7
20211020082305 48 182 0.0 0.0 0.00 0.00 0.00 96 1022.0
20211020081804 48 182 0.0 0.0 0.00 0.00 0.00 96 1021.9
20211020081304 48 182 0.0 0.0 0.00 0.00 0.00 96 1021.9
20211020080804 49 182 0.0 0.0 0.00 0.00 0.00 96 1021.9
20211020080304 49 182 0.0 0.0 0.00 0.00 0.00 95 1021.9
20211020075804 49 182 0.0 0.0 0.00 0.00 0.00 95 1022.1
20211020075306 49 182 0.0 0.0 0.00 0.00 0.00 95 1022.1
20211020074804 49 182 0.0 0.0 0.00 0.00 0.00 95 1021.9
20211020074304 49 182 0.0 0.0 0.00 0.00 0.00 94 1022.1
20211020073804 49 182 0.0 0.0 0.00 0.00 0.00 94 1021.9
20211020073304 49 182 0.0 0.0 0.00 0.00 0.00 94 1021.9
20211020072804 50 182 0.0 0.0 0.00 0.00 0.00 94 1021.9
20211020072306 50 182 0.0 0.0 0.00 0.00 0.00 93 1021.9
20211020071804 50 182 0.0 0.0 0.00 0.00 0.00 91 1021.9
20211020071304 50 182 0.0 0.0 0.00 0.00 0.00 90 1021.7
20211020070804 51 182 0.0 0.0 0.00 0.00 0.00 90 1021.9
20211020070305 51 182 0.0 0.0 0.00 0.00 0.00 90 1022.0
20211020065804 51 182 0.0 0.0 0.00 0.00 0.00 88 1021.7
20211020065305 51 182 0.0 0.0 0.00 0.00 0.00 90 1021.9
20211020064804 51 182 0.0 0.0 0.00 0.00 0.00 90 1021.9
20211020064304 51 182 0.0 0.0 0.00 0.00 0.00 90 1021.9
20211020063804 51 182 0.0 0.0 0.00 0.00 0.00 90 1021.7
20211020063304 51 182 0.0 0.0 0.00 0.00 0.00 89 1021.9
20211020062804 51 182 0.0 0.0 0.00 0.00 0.00 91 1021.8
20211020062306 51 182 0.0 0.0 0.00 0.00 0.00 91 1021.7
20211020061804 51 182 0.0 0.0 0.00 0.00 0.00 90 1021.7
20211020061304 51 182 0.0 0.0 0.00 0.00 0.00 90 1021.7
20211020060805 51 182 0.0 0.0 0.00 0.00 0.00 91 1021.6
20211020060304 51 182 0.0 0.0 0.00 0.00 0.00 90 1021.6
20211020055804 51 182 0.0 0.0 0.00 0.00 0.00 91 1021.8
20211020055305 51 182 0.0 0.0 0.00 0.00 0.00 90 1021.7
20211020054804 51 182 0.0 0.0 0.00 0.00 0.00 91 1021.8
20211020054304 51 182 0.0 0.0 0.00 0.00 0.00 89 1021.8
20211020053805 51 182 0.0 0.0 0.00 0.00 0.00 90 1021.7
20211020053304 52 182 0.0 0.0 0.00 0.00 0.00 90 1021.7
20211020052804 52 182 0.0 0.0 0.00 0.00 0.00 87 1021.6
20211020052306 53 182 0.0 0.0 0.00 0.00 0.00 86 1021.6
20211020051803 53 182 0.0 0.0 0.00 0.00 0.00 87 1021.6
20211020051304 53 182 0.0 0.0 0.00 0.00 0.00 89 1021.7
20211020050804 53 182 0.0 0.0 0.00 0.00 0.00 88 1021.7
20211020050303 53 182 0.0 1.0 0.00 0.00 0.00 86 1021.9
20211020045804 53 182 0.0 1.0 0.00 0.00 0.00 86 1021.8
20211020045307 53 182 0.0 1.0 0.00 0.00 0.00 86 1021.9
20211020044804 53 182 1.0 1.0 0.00 0.00 0.00 86 1022.0
20211020044304 53 182 1.0 2.0 0.00 0.00 0.00 84 1021.7
20211020043804 53 182 1.0 1.0 0.00 0.00 0.00 85 1021.6
20211020043305 54 182 1.0 2.0 0.00 0.00 0.00 85 1021.6
20211020042804 53 200 1.0 2.0 0.00 0.00 0.00 85 1021.6
20211020042306 53 200 0.0 0.0 0.00 0.00 0.00 85 1021.7
20211020041805 53 200 0.0 0.0 0.00 0.00 0.00 84 1021.8
20211020041304 53 201 0.0 0.0 0.00 0.00 0.00 88 1021.6
20211020040805 53 201 0.0 0.0 0.00 0.00 0.00 88 1021.6
20211020040304 53 201 0.0 1.0 0.00 0.00 0.00 86 1021.5
20211020035805 53 201 0.0 1.0 0.00 0.00 0.00 85 1021.8
20211020035306 53 201 0.0 1.0 0.00 0.00 0.00 86 1021.6
20211020034805 53 201 0.0 1.0 0.00 0.00 0.00 85 1021.5
20211020034304 53 201 1.0 1.0 0.00 0.00 0.00 85 1021.5
20211020033805 53 187 1.0 2.0 0.00 0.00 0.00 86 1021.7
20211020033304 53 187 0.0 1.0 0.00 0.00 0.00 87 1021.4
20211020032805 53 187 1.0 1.0 0.00 0.00 0.00 87 1021.3
20211020032306 53 187 1.0 1.0 0.00 0.00 0.00 86 1021.4
20211020031805 53 187 1.0 1.0 0.00 0.00 0.00 85 1021.4
20211020031305 53 187 1.0 2.0 0.00 0.00 0.00 86 1021.2
20211020030804 53 187 1.0 2.0 0.00 0.00 0.00 86 1021.4
20211020030304 53 187 1.0 2.0 0.00 0.00 0.00 85 1021.2
20211020025804 53 162 2.0 2.0 0.00 0.00 0.00 88 1021.2
20211020025306 53 162 1.0 2.0 0.00 0.00 0.00 88 1021.4
20211020024804 53 162 1.0 2.0 0.00 0.00 0.00 88 1021.3
20211020024305 52 163 1.0 2.0 0.00 0.00 0.00 87 1021.4
20211020023804 52 163 1.0 2.0 0.00 0.00 0.00 89 1021.3
20211020023304 52 162 1.0 3.0 0.00 0.00 0.00 90 1021.4
20211020022804 52 163 1.0 3.0 0.00 0.00 0.00 89 1021.5
20211020022305 52 162 1.0 2.0 0.00 0.00 0.00 89 1021.2
20211020021804 52 163 1.0 1.0 0.00 0.00 0.00 90 1021.4
20211020021304 52 162 1.0 2.0 0.00 0.00 0.00 88 1021.3
20211020020805 52 163 1.0 2.0 0.00 0.00 0.00 89 1021.3
20211020020304 52 162 1.0 2.0 0.00 0.00 0.00 89 1021.3
20211020015805 53 163 1.0 2.0 0.00 0.00 0.00 88 1021.2
20211020015306 53 162 1.0 2.0 0.00 0.00 0.00 87 1021.3
20211020014804 53 162 1.0 2.0 0.00 0.00 0.00 88 1021.4
20211020014304 53 162 1.0 3.0 0.00 0.00 0.00 87 1021.4
20211020013804 53 165 2.0 3.0 0.00 0.00 0.00 89 1021.4
20211020013304 53 168 1.0 2.0 0.00 0.00 0.00 88 1021.4
20211020012805 52 168 1.0 1.0 0.00 0.00 0.00 90 1021.3
20211020012306 52 168 1.0 1.0 0.00 0.00 0.00 91 1021.2
20211020011804 52 168 0.0 0.0 0.00 0.00 0.00 93 1021.4
20211020011304 52 168 0.0 0.0 0.00 0.00 0.00 91 1021.2
20211020010804 52 168 0.0 0.0 0.00 0.00 0.00 91 1021.3
20211020010304 52 168 0.0 0.0 0.00 0.00 0.00 91 1021.2
20211020005804 52 168 0.0 0.0 0.00 0.00 0.00 92 1021.4
20211020005306 52 168 0.0 0.0 0.00 0.00 0.00 93 1021.2
20211020004805 52 168 0.0 1.0 0.00 0.00 0.00 92 1021.2
20211020004305 52 168 1.0 1.0 0.00 0.00 0.00 93 1021.3
20211020003804 52 168 1.0 1.0 0.00 0.00 0.00 93 1021.1
20211020003304 52 168 1.0 1.0 0.00 0.00 0.00 92 1021.2
20211020002805 53 168 1.0 2.0 0.00 0.00 0.00 92 1021.2
20211020002306 53 168 1.0 1.0 0.00 0.00 0.00 92 1021.3
20211020001804 53 168 1.0 1.0 0.00 0.00 0.00 92 1021.2
20211020001305 53 168 1.0 1.0 0.00 0.00 0.00 91 1021.1
20211020000804 53 168 1.0 1.0 0.00 0.00 0.00 91 1021.1
20211020000304 53 168 1.0 1.0 0.00 0.00 0.00 91 1021.1
20211019235805 54 168 1.0 1.0 0.00 0.00 0.00 91 1021.1
20211019235306 54 168 1.0 1.0 0.00 0.00 0.00 90 1021.1
20211019234804 54 168 1.0 1.0 0.00 0.00 0.00 90 1021.2
20211019234305 54 168 1.0 1.0 0.00 0.00 0.00 90 1021.0
20211019233805 54 168 1.0 1.0 0.00 0.00 0.00 89 1020.7
20211019233305 55 168 1.0 1.0 0.00 0.00 0.00 89 1021.0
20211019232804 55 168 1.0 1.0 0.00 0.00 0.00 89 1020.9
20211019232306 55 168 0.0 1.0 0.00 0.00 0.00 88 1020.9
20211019231804 55 168 1.0 1.0 0.00 0.00 0.00 88 1020.8
20211019231304 55 168 1.0 1.0 0.00 0.00 0.00 89 1020.8
20211019230804 56 168 1.0 1.0 0.00 0.00 0.00 88 1020.8
20211019230304 56 168 1.0 1.0 0.00 0.00 0.00 87 1021.0
20211019225804 56 168 1.0 1.0 0.00 0.00 0.00 87 1020.7
20211019225305 57 168 1.0 1.0 0.00 0.00 0.00 87 1020.9
20211019224804 57 168 0.0 1.0 0.00 0.00 0.00 86 1020.9
20211019224303 57 168 0.0 1.0 0.00 0.00 0.00 84 1020.8
20211019223804 58 168 1.0 1.0 0.00 0.00 0.00 85 1020.6
20211019223304 58 168 0.0 2.0 0.00 0.00 0.00 85 1020.6
20211019222805 58 168 1.0 2.0 0.00 0.00 0.00 82 1020.6
20211019222306 58 168 0.0 1.0 0.00 0.00 0.00 84 1020.5
20211019221805 58 168 1.0 1.0 0.00 0.00 0.00 84 1020.7
20211019221305 58 168 0.0 1.0 0.00 0.00 0.00 82 1020.7
20211019220804 59 168 1.0 2.0 0.00 0.00 0.00 82 1020.6
20211019220305 59 166 2.0 2.0 0.00 0.00 0.00 79 1020.8
20211019215804 59 171 1.0 1.0 0.00 0.00 0.00 80 1020.6
20211019215305 60 171 0.0 1.0 0.00 0.00 0.00 80 1020.8
20211019214805 60 171 0.0 0.0 0.00 0.00 0.00 79 1020.8
20211019214304 60 171 0.0 0.0 0.00 0.00 0.00 77 1020.7
20211019213804 60 171 1.0 1.0 0.00 0.00 0.00 75 1020.6
20211019213305 61 171 0.0 1.0 0.00 0.00 0.00 75 1020.8
20211019212804 61 171 1.0 3.0 0.00 0.00 0.00 74 1020.8
20211019212305 61 186 1.0 2.0 0.00 0.00 0.00 72 1021.0
20211019211804 61 193 0.0 1.0 0.00 0.00 0.00 74 1020.9
20211019211305 62 198 0.0 1.0 0.00 0.00 0.00 69 1020.8
20211019210804 62 155 0.0 2.0 0.00 0.00 0.00 72 1020.8
20211019210305 63 160 2.0 3.0 0.00 0.00 0.00 68 1020.9
20211019205805 62 165 2.0 5.0 0.00 0.00 0.00 65 1021.0
20211019205305 63 189 1.0 2.0 0.00 0.00 0.00 66 1020.9
20211019204804 63 173 0.0 5.0 0.00 0.00 0.00 65 1020.9
20211019204304 63 174 1.0 5.0 0.00 0.00 0.00 66 1020.8
20211019203804 63 165 0.0 2.0 0.00 0.00 0.00 67 1020.7
20211019203304 63 189 1.0 2.0 0.00 0.00 0.00 67 1021.0
20211019202804 63 156 1.0 5.0 0.00 0.00 0.00 64 1020.9
20211019202305 63 227 0.0 1.0 0.00 0.00 0.00 68 1020.9
20211019201804 63 224 0.0 0.0 0.00 0.00 0.00 70 1020.9
20211019201304 63 224 0.0 1.0 0.00 0.00 0.00 67 1020.9
20211019200804 64 211 0.0 1.0 0.00 0.00 0.00 65 1021.0
20211019200304 64 228 0.0 1.0 0.00 0.00 0.00 62 1020.8
20211019195804 65 204 0.0 1.0 0.00 0.00 0.00 61 1020.8
20211019195305 64 186 1.0 2.0 0.00 0.00 0.00 64 1020.8
20211019194803 64 186 0.0 1.0 0.00 0.00 0.00 61 1021.1
20211019194304 64 207 1.0 3.0 0.00 0.00 0.00 63 1020.9
20211019193804 64 187 0.0 3.0 0.00 0.00 0.00 63 1020.9
20211019193304 64 187 1.0 3.0 0.00 0.00 0.00 63 1020.9
20211019192804 64 210 1.0 2.0 0.00 0.00 0.00 62 1021.0
20211019192306 64 150 2.0 3.0 0.00 0.00 0.00 63 1021.1
20211019191804 64 160 1.0 2.0 0.00 0.00 0.00 61 1021.0
20211019191304 64 159 0.0 2.0 0.00 0.00 0.00 62 1021.1
20211019190804 64 195 1.0 2.0 0.00 0.00 0.00 62 1021.1
20211019190303 63 253 1.0 2.0 0.00 0.00 0.00 63 1021.2
20211019185804 64 174 1.0 2.0 0.00 0.00 0.00 60 1021.2
20211019185305 64 162 1.0 2.0 0.00 0.00 0.00 63 1021.3
20211019184804 64 258 1.0 2.0 0.00 0.00 0.00 61 1021.4
20211019184304 64 195 0.0 1.0 0.00 0.00 0.00 59 1021.5
20211019183804 64 226 1.0 2.0 0.00 0.00 0.00 58 1021.5
20211019183304 64 214 0.0 1.0 0.00 0.00 0.00 61 1021.5
20211019182804 64 185 0.0 1.0 0.00 0.00 0.00 61 1021.7
20211019182306 64 205 0.0 1.0 0.00 0.00 0.00 67 1021.7
20211019181804 63 192 0.0 2.0 0.00 0.00 0.00 63 1021.8
20211019181303 63 226 0.0 1.0 0.00 0.00 0.00 60 1021.8
20211019180804 63 143 0.0 2.0 0.00 0.00 0.00 62 1022.0
20211019180304 63 142 1.0 2.0 0.00 0.00 0.00 60 1021.9
20211019175804 63 170 1.0 2.0 0.00 0.00 0.00 61 1022.0
20211019175305 62 245 0.0 1.0 0.00 0.00 0.00 62 1022.1
20211019174804 62 180 0.0 2.0 0.00 0.00 0.00 61 1022.3
20211019174303 63 207 2.0 3.0 0.00 0.00 0.00 61 1022.1
20211019173804 62 175 2.0 3.0 0.00 0.00 0.00 64 1022.1
20211019173303 62 207 0.0 2.0 0.00 0.00 0.00 63 1022.3
20211019172804 62 251 0.0 1.0 0.00 0.00 0.00 63 1022.5
20211019172306 62 250 0.0 1.0 0.00 0.00 0.00 62 1022.4
20211019171803 61 187 2.0 3.0 0.00 0.00 0.00 63 1022.3
20211019171304 63 216 0.0 1.0 0.00 0.00 0.00 58 1022.5
20211019170804 62 164 1.0 3.0 0.00 0.00 0.00 64 1022.5
20211019170304 62 261 1.0 1.0 0.00 0.00 0.00 61 1022.5
20211019165803 62 263 0.0 6.0 0.00 0.00 0.00 57 1022.6
20211019165306 62 125 2.0 6.0 0.00 0.00 0.00 59 1022.5
20211019164804 62 139 2.0 5.0 0.00 0.00 0.00 54 1022.7
20211019164304 63 197 0.0 3.0 0.00 0.00 0.00 55 1022.7
20211019163804 63 127 2.0 5.0 0.00 0.00 0.00 58 1022.6
20211019163304 64 225 1.0 2.0 0.00 0.00 0.00 56 1022.7
20211019162804 64 221 0.0 1.0 0.00 0.00 0.00 59 1022.5
20211019162306 62 217 0.0 2.0 0.00 0.00 0.00 62 1022.5
20211019161804 62 168 2.0 3.0 0.00 0.00 0.00 59 1022.7
20211019161304 63 137 1.0 3.0 0.00 0.00 0.00 59 1022.8
20211019160804 64 187 1.0 2.0 0.00 0.00 0.00 61 1022.8
20211019160304 63 166 0.0 1.0 0.00 0.00 0.00 58 1022.7
20211019155804 62 167 1.0 3.0 0.00 0.00 0.00 62 1022.8
20211019155306 62 217 1.0 3.0 0.00 0.00 0.00 62 1022.8
20211019154804 62 138 1.0 5.0 0.00 0.00 0.00 59 1022.8
20211019154304 62 158 1.0 2.0 0.00 0.00 0.00 61 1022.9
20211019153804 61 174 1.0 3.0 0.00 0.00 0.00 59 1022.8
20211019153304 60 163 2.0 5.0 0.00 0.00 0.00 62 1023.0
20211019152804 61 171 1.0 5.0 0.00 0.00 0.00 60 1022.7
20211019152306 62 159 3.0 5.0 0.00 0.00 0.00 60 1022.7
20211019151804 62 170 0.0 1.0 0.00 0.00 0.00 62 1022.7
20211019151303 62 181 1.0 3.0 0.00 0.00 0.00 64 1022.6
20211019150804 62 202 0.0 1.0 0.00 0.00 0.00 58 1022.7
20211019150304 62 216 0.0 1.0 0.00 0.00 0.00 59 1022.6
20211019145804 63 109 0.0 0.0 0.00 0.00 0.00 68 1022.7
20211019145307 62 79 0.0 1.0 0.00 0.00 0.00 68 1022.7
20211019144804 62 80 0.0 0.0 0.00 0.00 0.00 68 1022.9
20211019144305 60 79 0.0 0.0 0.00 0.00 0.00 70 1022.9
20211019143804 61 79 0.0 0.0 0.00 0.00 0.00 73 1022.8
20211019143305 61 78 0.0 0.0 0.00 0.00 0.00 76 1022.6
20211019142804 59 79 0.0 0.0 0.00 0.00 0.00 74 1022.6
20211019142305 60 78 0.0 0.0 0.00 0.00 0.00 75 1022.6
20211019141804 58 78 0.0 0.0 0.00 0.00 0.00 75 1022.6